Regional Weather Roundup
Issued by NWS

Home | Current Version | Previous Version | Text Only | Print | Product List | Glossary Off
Versions: 1 2 3 4 5 6 7 8 9 10 11 12 13 14 15 16 17 18 19 20 21 22 23 24 25 26 27 28 29 30 31 32 33 34 35 36 37 38 39 40 41 42 43 44 45 46 47 48 49 50

000
ASUS43 KLMK 241910
RWRKY
KENTUCKY REGIONAL WEATHER ROUNDUP
NATIONAL WEATHER SERVICE LOUISVILLE KY
300 PM EDT FRI OCT 24 2014

NOTE "FAIR" INDICATES FEW OR NO CLOUDS BELOW 12,000 FEET
WITH NO SIGNIFICANT WEATHER AND/OR OBSTRUCTIONS TO VISIBILITY.

KYZ001>023-026-027-061>063-070>075-242000-
WESTERN AND SOUTH CENTRAL KENTUCKY

CITY           SKY/WX    TMP DP  RH WIND       PRES   REMARKS
PADUCAH        SUNNY     71  56  58 W6        30.07F
HENDERSON      PTSUNNY  N/A N/A N/A NW3       30.06F
OWENSBORO      SUNNY     68  48  48 S7        30.07F
HOPKINSVILLE   MOSUNNY   68  42  39 VRB2      30.09F
BOWLING GREEN  SUNNY     66  41  40 NW3       30.09F
GLASGOW        SUNNY     67  42  40 CALM      30.08F
$$

KYZ024-025-028>034-038-045-046-053-242000-
NORTH CENTRAL KENTUCKY

CITY           SKY/WX    TMP DP  RH WIND       PRES   REMARKS
LOUISVILLE/SDF PTSUNNY   68  43  40 VRB6      30.07F
LOUISVILLE/LOU SUNNY     64  38  38 SW5       30.08F
FORT KNOX      CLOUDY    63  43  47 SW5       30.07F
$$

KYZ035>037-039>044-047>052-055>060-089>105-242000-
NORTHEAST KENTUCKY

CITY           SKY/WX    TMP DP  RH WIND       PRES   REMARKS
LEXINGTON      MOSUNNY   64  43  46 VRB3      30.07F
COVINGTON      SUNNY     64  41  42 S8        30.04F
FRANKFORT      SUNNY     62  40  44 SW5       30.06F
$$

KYZ054-064>069-076>088-106>120-242000-
SOUTHEAST KENTUCKY

CITY           SKY/WX    TMP DP  RH WIND       PRES   REMARKS
JACKSON        MOSUNNY   61  43  51 CALM      30.07F
LONDON         SUNNY     65  40  39 VRB3      30.07F
SOMERSET       MOSUNNY   63  41  45 CALM      30.08F
MIDDLESBORO    SUNNY     65  42  43 CALM      30.07F
MONTICELLO     CLEAR     66  42  41 CALM      30.09F HAZE
$$




USA.gov is the U.S. government's official web portal to all federal, state and local government web resources and services.